Address 0xe1a0ddeb9b5b55e489977b438764e60e314e917c 1

Txn Hash Method
Block
From
To
Value [Txn Fee]
0xba542d6eb11b5d59f3da16b82fae10540f2bdcb6ac28ca5d170de25c54d7f943Transfer202579992022-09-25 12:14:578 mins ago0xe1a0ddeb9b5b55e489977b438764e60e314e917cOUT0x6348725f9914c3c24100fef5589d7ede656efe830.1007431 AVAX0.00052525
0x28b1035b182a17fa51a1fd142cab0edb9ca27eabf400cfcc1acfbda813fba8f3Transfer202569722022-09-25 11:39:1044 mins ago0xe1a0ddeb9b5b55e489977b438764e60e314e917cOUT0xdd640e764d33e958a8a141b885664b5f2155b0f010.28207412 AVAX0.00052525
0x90bc6c7f715e29bee350c8b9c998e7cc651e88c1e452e1a63c4ca561d221722fTransfer202566522022-09-25 11:27:3955 mins ago0xe1a0ddeb9b5b55e489977b438764e60e314e917cOUT0x988f37323179a428d37ce7074c257891f45115104.49840825 AVAX0.00052525
0x99667a4e1aba5bb13b1d2b63e5ec60495c8ef7f9c0cbeb9613c4823fd8f2e214Transfer202565272022-09-25 11:23:2359 mins ago0xa1d444434257feaced9d69bc05a2ef6a19168126 IN 0xe1a0ddeb9b5b55e489977b438764e60e314e917c59.222185 AVAX0.00052525
0x3a42d5d88a5380c1d800d631eb8ff5d9f439f71a61bb4f50b1940d66e373e8b1Transfer202565272022-09-25 11:23:2359 mins ago0x01acd69bcfa5762d74b58781ad349a95762ca915 IN 0xe1a0ddeb9b5b55e489977b438764e60e314e917c40.0866596 AVAX0.00052525
0x1af92b4b798a8b0b02035c406e8059d5f222926d69376490f229abc570fb0f9cTransfer202565272022-09-25 11:23:2359 mins ago0x311374f8af23969b5d74f1c95fc290937384e637 IN 0xe1a0ddeb9b5b55e489977b438764e60e314e917c0.999475 AVAX0.00052525
0x33d9e7d50b00e85d17bced8d19b4150679ac38e915ba17d2a555659f6f363302Transfer202563602022-09-25 11:17:391 hr 5 mins ago0xe1a0ddeb9b5b55e489977b438764e60e314e917cOUT0xdd640e764d33e958a8a141b885664b5f2155b0f011.22333677 AVAX0.00052525
0xabb7fc73202725bbf301e660b6e9f67dc9cb2c96b7ca29ec1297af74e165f5bfTransfer202555202022-09-25 10:48:151 hr 35 mins ago0xe1a0ddeb9b5b55e489977b438764e60e314e917cOUT0x9f63c62dfd16f4b94a549757ae16fcdcf9f856b37.64773008 AVAX0.00052525
0xa97a83d16d25143bd2158c75161e238b952490ed4a14526311dca689e03fb856Transfer202553352022-09-25 10:41:341 hr 41 mins ago0xe1a0ddeb9b5b55e489977b438764e60e314e917cOUT0x1218c0a0f1b131b4b78e95c2887147a95f26612e3.27994817 AVAX0.00052525
0x52accc908513d3e0f4516af1cacd741fd87dcee3d7fa828066a500b357f82d57Transfer202552262022-09-25 10:37:381 hr 45 mins ago0xe1a0ddeb9b5b55e489977b438764e60e314e917cOUT0x3f9dbadcef5a27a98688e2642f8e263982c2dee30.3 AVAX0.00052525
0xc035c3e553eee8571cc454489e52c219402897f404e6677b5937c980382c7a7aTransfer202549222022-09-25 10:27:021 hr 56 mins ago0xe1a0ddeb9b5b55e489977b438764e60e314e917cOUT0xdd640e764d33e958a8a141b885664b5f2155b0f08.25365501 AVAX0.00052525
0x616902ec6c0789175611c3c5a28c7a7430de04c5f831675d9e5719149d31118aTransfer202546852022-09-25 10:18:532 hrs 4 mins ago0xe1a0ddeb9b5b55e489977b438764e60e314e917cOUT0x57d798a065053d9ca4198a9d925101597b38d5682.69227167 AVAX0.00052525
0x76b130acc55ee9c668951120da50f8a114df94e5cac2810e609c7bab7a49da32Transfer202545492022-09-25 10:14:142 hrs 9 mins ago0xe1a0ddeb9b5b55e489977b438764e60e314e917cOUT0x8327aeaab764db7e81fa1cb6a3b92813d06e9c265.58931014 AVAX0.00052525
0xc98469f16e6915f016f4a12d7c6cc6e2189ad125f8f9f06bae8ea5d2e107bf55Transfer202525742022-09-25 9:05:363 hrs 17 mins ago0xe1a0ddeb9b5b55e489977b438764e60e314e917cOUT0xe8e162f94c1d2ffb3f8103a1f42b0e0c0121e35f2.59267361 AVAX0.00052525
0x518f6e8e732c9f36c8da088e627f616d2af5dcf1509216227dbe9710252c9147Transfer202523032022-09-25 8:55:583 hrs 27 mins ago0xe1a0ddeb9b5b55e489977b438764e60e314e917cOUT0x6d698d1b15b4f6d662f122c3787d4211572f6ff46.53 AVAX0.00052525
0x0054c38da9ad2c0af7d454888ac249ab35b3f45ec42593cc76ef36789109c677Transfer202520322022-09-25 8:46:303 hrs 36 mins ago0xe1a0ddeb9b5b55e489977b438764e60e314e917cOUT0xcce23cd83babb2bdb77c97e37bc8139045d271d811.739523 AVAX0.00052525
0xe4cf9be0fdeb81ce8fb3924c85d96286386821f6896faac417830628c3fc867aTransfer202509532022-09-25 8:08:324 hrs 14 mins ago0xe1a0ddeb9b5b55e489977b438764e60e314e917cOUT0xcbe23f11ba26780c4475c8c656c324989a5344653.61502991 AVAX0.00052525
0x587606e99743931ad880546ceafd4966732d0be3bd3f84ad084cc3638a2d7392Transfer202506722022-09-25 7:58:494 hrs 24 mins ago0xe1a0ddeb9b5b55e489977b438764e60e314e917cOUT0x9bf22456782c94d6551a611357a6c6bdf3ef0bca13.88886974 AVAX0.00052525
0xc5ac81d3c7ca2c23ba56e7bd79f71cb1a8b2046477a164347d0f1a5cd9abe4b8Transfer202498592022-09-25 7:30:424 hrs 52 mins ago0xe1a0ddeb9b5b55e489977b438764e60e314e917cOUT0x85e1448f81ec0d4d2633bf70fcfa9e0e0ed873d71.12359823 AVAX0.00052525
0x3b88057ee04918c4d4dd986e343944bbc471fe3ee5421df4bc86fe17c3dc780fTransfer202497892022-09-25 7:28:094 hrs 55 mins ago0xe1a0ddeb9b5b55e489977b438764e60e314e917cOUT0x280560c5088455792b413eaf1f7e637f4f3f89d00.26495802 AVAX0.00052525
0x809fa726c70cb82c254fe0421372e4ebae6e0fec09065528ec0faab584fe9cc1Transfer202495762022-09-25 7:20:195 hrs 2 mins ago0xe1a0ddeb9b5b55e489977b438764e60e314e917cOUT0x21196110abfc7ab90115648b0ee1b7d12a5ad8f81.4024225 AVAX0.00052525
0x81d69e4d92408c1d692486f87dbbb0aa65897b33036f92f9f366ff118886a3b6Transfer202482792022-09-25 6:35:075 hrs 48 mins ago0xe1a0ddeb9b5b55e489977b438764e60e314e917cOUT0xe4663ed171a471334ef995200cffc3c07ca0b7643.4995637 AVAX0.00052525
0xf8a4117cbff4ee716bf7b7a6e3e07702563ccc0da5587deb13c3ccc5b7a87748Transfer202475712022-09-25 6:11:016 hrs 12 mins ago0xe1a0ddeb9b5b55e489977b438764e60e314e917cOUT0xdf38cabd6488d766be3c074114aad9c8e7c0d92e0.399 AVAX0.00052525
0x1a2896c65411c77567e8a18167f0ce6afaf284f5a95270ecc3fd5b731ccf8fe1Transfer202473362022-09-25 6:03:006 hrs 20 mins ago0xe1a0ddeb9b5b55e489977b438764e60e314e917cOUT0x5f1f719955bca74f6798104157a85038be3310161.0425472 AVAX0.00052525
0xcf10b5ccc8a892e291969c5b0e446ce3c85b95c92f5620f7c0e00adca131ea55Transfer202470732022-09-25 5:53:466 hrs 29 mins ago0xe1a0ddeb9b5b55e489977b438764e60e314e917cOUT0x3e1efabf394cb1630c9e24e52bd6951a7a39c1b420.7084316 AVAX0.00052525
[ Download CSV Export 
Latest 1 internal transaction
Parent Txn Hash Block From To Value
0x42cedbc43a3bc2c0271b7898972ea073798f9a57ae4378931f37154dbf909bcd113015962022-02-23 17:52:59213 days 18 hrs ago 0x603345d873c998ca72ce8e187283841557b138640xe1a0ddeb9b5b55e489977b438764e60e314e917c11.9 AVAX
[ Download CSV Export 
Loading

Contract Name:
0

Compiler Version
0

Optimization Enabled:
0

Other Settings:
-NA-
Block Transaction Gas Used Reward
Age Block Fee Address BC Fee Address Voting Power Jailed Incoming
Block Uncle Number Difficulty Gas Used Reward
Loading
Make sure to use the "Vote Down" button for any spammy posts, and the "Vote Up" for interesting conversations.